GW4609 Weather Reports


time (UTC)temp
C
wind
direction
speed
KPH
gust
KPH
rain 1hr
cm
rain 24hr
cm
rain mn
cm
humidity
%
barometer
mb
20260503032714 6 317 0.0 6.4 0.00 0.00 0.00 67 1013.7
20260503032212 5 313 4.8 6.4 0.00 0.00 0.00 68 1013.5
20260503031708 5 310 1.6 9.7 0.00 0.00 0.00 68 1013.5
20260503031207 5 288 1.6 3.2 0.00 0.00 0.00 73 1013.4
20260503030702 5 280 1.6 3.2 0.00 0.00 0.00 75 1013.5
20260503030159 5 231 0.0 1.6 0.00 0.00 0.00 74 1013.5
20260503025656 5 219 1.6 1.6 0.00 0.00 0.00 71 1013.6
20260503025154 5 318 1.6 3.2 0.00 0.00 0.00 73 1013.4
20260503024650 5 292 0.0 1.6 0.00 0.00 0.00 76 1013.6
20260503024148 5 337 1.6 3.2 0.00 0.00 0.00 75 1013.5
20260503023644 6 303 1.6 3.2 0.00 0.00 0.00 72 1013.6
20260503023141 6 222 0.0 3.2 0.00 0.00 0.00 68 1013.8
20260503022637 5 230 1.6 1.6 0.00 0.00 0.00 69 1013.7
20260503022137 5 289 0.0 1.6 0.00 0.00 0.00 72 1013.5
20260503021634 6 299 0.0 1.6 0.00 0.00 0.00 71 1013.6
20260503021131 6 228 1.6 1.6 0.00 0.00 0.00 71 1013.3
20260503020628 6 281 0.0 1.6 0.00 0.00 0.00 67 1013.4
20260503020126 6 241 1.6 3.2 0.00 0.00 0.00 65 1013.5
20260503015622 7 305 1.6 1.6 0.00 0.00 0.00 65 1013.3
20260503015119 7 329 1.6 3.2 0.00 0.00 0.00 60 1013.4
20260503014615 7 329 1.6 1.6 0.00 0.00 0.00 58 1013.3
20260503014113 7 334 3.2 6.4 0.00 0.00 0.00 57 1013.3
20260503013610 7 331 0.0 4.8 0.00 0.00 0.00 58 1013.2
20260503013108 8 323 0.0 3.2 0.00 0.00 0.00 57 1013.2
20260503012605 8 317 0.0 0.0 0.00 0.00 0.00 57 1013.0
20260503012101 8 285 4.8 9.7 0.00 0.00 0.00 56 1013.0
20260503011558 8 297 0.0 0.0 0.00 0.00 0.00 58 1012.7
20260503011055 8 4 0.0 0.0 0.00 0.00 0.00 55 1012.9
20260503010551 8 65 1.6 1.6 0.00 0.00 0.00 56 1012.7
20260503010049 8 310 1.6 1.6 0.00 0.00 0.00 54 1012.5
20260503005546 8 330 1.6 4.8 0.00 0.00 0.00 54 1012.5
20260503005043 8 150 3.2 6.4 0.00 0.00 0.00 52 1012.3
20260503004539 9 73 3.2 4.8 0.00 0.00 0.00 53 1012.2
20260503004038 9 125 6.4 11.3 0.00 0.00 0.00 52 1012.2
20260503003534 9 70 4.8 16.1 0.00 0.00 0.00 50 1012.0
20260503003031 9 278 0.0 3.2 0.00 0.00 0.00 51 1011.9
20260503002528 9 302 0.0 3.2 0.00 0.00 0.00 53 1011.9
20260503002025 9 330 0.0 0.0 0.00 0.00 0.00 51 1011.9
20260503001521 10 119 0.0 0.0 0.00 0.00 0.00 49 1011.7
20260503001019 10 79 1.6 3.2 0.00 0.00 0.00 50 1011.7
20260503000511 10 343 1.6 1.6 0.00 0.00 0.00 49 1011.4
20260503000007 10 283 3.2 3.2 0.00 0.00 0.00 50 1011.4
20260502235503 10 90 3.2 4.8 0.00 0.00 0.00 48 1011.5
20260502235001 10 134 3.2 4.8 0.00 0.00 0.00 49 1011.2
20260502234457 10 88 3.2 4.8 0.00 0.00 0.00 48 1011.3
20260502233955 10 86 0.0 3.2 0.00 0.00 0.00 48 1011.4
20260502233450 10 73 1.6 6.4 0.00 0.00 0.00 50 1011.3
20260502232947 10 66 0.0 4.8 0.00 0.00 0.00 48 1011.1
20260502232444 10 92 3.2 9.7 0.00 0.00 0.00 49 1011.2
20260502231940 10 106 8.0 14.5 0.00 0.00 0.00 47 1011.1
20260502231438 11 82 1.6 4.8 0.00 0.00 0.00 48 1011.1
20260502230936 11 68 0.0 3.2 0.00 0.00 0.00 47 1011.1
20260502230434 11 48 0.0 4.8 0.00 0.00 0.00 45 1011.1
20260502225932 11 88 0.0 3.2 0.00 0.00 0.00 46 1010.9
20260502225427 11 69 1.6 3.2 0.00 0.00 0.00 46 1010.9
20260502224925 11 140 1.6 12.9 0.00 0.00 0.00 46 1010.8
20260502224420 11 327 3.2 4.8 0.00 0.00 0.00 46 1010.9
20260502223917 11 331 1.6 6.4 0.00 0.00 0.00 45 1010.8
20260502223415 11 314 1.6 3.2 0.00 0.00 0.00 44 1010.7
20260502222913 11 75 3.2 4.8 0.00 0.00 0.00 44 1010.7
20260502222411 11 50 0.0 3.2 0.00 0.00 0.00 48 1010.6
20260502221910 11 80 4.8 6.4 0.00 0.00 0.00 43 1010.7
20260502221407 11 111 3.2 4.8 0.00 0.00 0.00 43 1010.7
20260502220904 12 68 4.8 6.4 0.00 0.00 0.00 45 1010.8
20260502220400 12 66 1.6 4.8 0.00 0.00 0.00 45 1010.5
20260502215857 12 82 3.2 4.8 0.00 0.00 0.00 43 1010.5
20260502215355 12 76 3.2 6.4 0.00 0.00 0.00 45 1010.4
20260502214851 12 274 0.0 9.7 0.00 0.00 0.00 43 1010.3
20260502214348 12 86 4.8 12.9 0.00 0.00 0.00 42 1010.5
20260502213845 12 340 4.8 9.7 0.00 0.00 0.00 43 1010.4
20260502213342 12 77 3.2 6.4 0.00 0.00 0.00 41 1010.5
20260502212841 12 254 1.6 11.3 0.00 0.00 0.00 41 1010.4
20260502212339 12 206 3.2 4.8 0.00 0.00 0.00 42 1010.5
20260502211836 12 156 3.2 16.1 0.00 0.00 0.00 41 1010.5
20260502211331 12 76 1.6 14.5 0.00 0.00 0.00 43 1010.3
20260502210829 12 125 1.6 4.8 0.00 0.00 0.00 40 1010.4
20260502210326 12 343 3.2 4.8 0.00 0.00 0.00 41 1010.5
20260502205823 12 321 4.8 9.7 0.00 0.00 0.00 39 1010.1
20260502205319 12 80 1.6 12.9 0.00 0.00 0.00 40 1010.4
20260502204816 12 230 1.6 9.7 0.00 0.00 0.00 39 1010.3
20260502204313 12 354 0.0 4.8 0.00 0.00 0.00 40 1010.1
20260502203811 12 84 3.2 12.9 0.00 0.00 0.00 37 1010.5
20260502203309 12 246 1.6 3.2 0.00 0.00 0.00 42 1010.2
20260502202808 12 320 3.2 6.4 0.00 0.00 0.00 39 1010.3
20260502202306 12 71 9.7 11.3 0.00 0.00 0.00 38 1010.4
20260502201804 12 325 3.2 6.4 0.00 0.00 0.00 39 1010.4
20260502201300 12 273 3.2 9.7 0.00 0.00 0.00 39 1010.4
20260502200756 12 346 4.8 11.3 0.00 0.00 0.00 38 1010.3
20260502200252 12 90 12.9 16.1 0.00 0.00 0.00 39 1010.3
20260502195751 12 73 9.7 12.9 0.00 0.00 0.00 41 1010.5
20260502195247 12 86 6.4 6.4 0.00 0.00 0.00 40 1010.4
20260502194744 13 308 1.6 6.4 0.00 0.00 0.00 38 1010.5
20260502194241 13 328 12.9 16.1 0.00 0.00 0.00 39 1010.6
20260502193736 12 311 0.0 6.4 0.00 0.00 0.00 40 1010.9
20260502193234 12 125 9.7 12.9 0.00 0.00 0.00 38 1010.9
20260502192734 12 325 3.2 6.4 0.00 0.00 0.00 41 1010.9
20260502192232 12 227 1.6 4.8 0.00 0.00 0.00 42 1010.9
20260502191728 12 142 0.0 3.2 0.00 0.00 0.00 42 1010.8
20260502191226 12 348 4.8 9.7 0.00 0.00 0.00 38 1010.9
20260502190723 12 233 3.2 9.7 0.00 0.00 0.00 40 1011.2
20260502190221 14 293 8.0 11.3 0.00 0.00 0.00 37 1011.2
20260502185720 14 303 1.6 6.4 0.00 0.00 0.00 41 1011.1
20260502185217 13 70 3.2 4.8 0.00 0.00 0.00 44 1011.6
20260502184714 12 27 3.2 11.3 0.00 0.00 0.00 41 1011.3
20260502184209 12 15 3.2 9.7 0.00 0.00 0.00 40 1011.4
20260502183706 12 38 3.2 12.9 0.00 0.00 0.00 40 1011.4
20260502183202 12 342 3.2 12.9 0.00 0.00 0.00 39 1011.5
20260502182657 12 60 3.2 6.4 0.00 0.00 0.00 42 1011.7
20260502182153 12 84 4.8 11.3 0.00 0.00 0.00 40 1011.4
20260502181651 12 339 3.2 3.2 0.00 0.00 0.00 43 1011.6
20260502181150 12 203 4.8 12.9 0.00 0.00 0.00 41 1011.7
20260502180646 12 48 0.0 12.9 0.00 0.00 0.00 44 1011.6
20260502180144 12 335 3.2 11.3 0.00 0.00 0.00 43 1012.0
20260502170108 12 325 1.6 1.6 0.00 0.00 0.00 42 1011.9
20260502164054 11 70 3.2 4.8 0.00 0.00 0.00 50 1011.9
20260502163550 12 65 0.0 6.4 0.00 0.00 0.00 50 1012.1
20260502163047 11 64 1.6 9.7 0.00 0.00 0.00 56 1012.1
20260502162544 10 64 1.6 4.8 0.00 0.00 0.00 49 1012.3
20260502162041 10 78 4.8 6.4 0.00 0.00 0.00 51 1012.5
20260502161538 10 80 9.7 11.3 0.00 0.00 0.00 53 1012.5
20260502161036 11 328 3.2 4.8 0.00 0.00 0.00 53 1012.4
20260502160533 11 98 6.4 6.4 0.00 0.00 0.00 49 1012.4
20260502151941 11 88 0.0 1.6 0.00 0.00 0.00 51 1012.7
20260502151437 10 62 3.2 9.7 0.00 0.00 0.00 54 1012.7
20260502150935 10 39 8.0 12.9 0.00 0.00 0.00 53 1012.4
20260502150432 10 97 3.2 4.8 0.00 0.00 0.00 56 1012.6
20260502130317 7 80 1.6 3.2 0.00 0.00 0.00 68 1013.1
20260502123803 7 312 0.0 1.6 0.00 0.00 0.00 73 1013.1
20260502123300 7 302 1.6 3.2 0.00 0.00 0.00 72 1012.9
20260502122756 6 340 1.6 1.6 0.00 0.00 0.00 73 1013.2
20260502122252 6 37 0.0 1.6 0.00 0.00 0.00 77 1013.0
20260502121751 6 50 0.0 1.6 0.00 0.00 0.00 76 1013.2
20260502121248 6 2 0.0 0.0 0.00 0.00 0.00 83 1013.4
20260502120745 5 16 0.0 1.6 0.00 0.00 0.00 85 1013.3
20260502120242 5 92 1.6 4.8 0.00 0.00 0.00 85 1013.2
20260502115739 5 84 1.6 3.2 0.00 0.00 0.00 87 1013.3
20260502115236 5 18 0.0 0.0 0.00 0.00 0.00 85 1013.3
20260502114732 5 2 0.0 0.0 0.00 0.00 0.00 86 1013.2
20260502114229 5 301 0.0 0.0 0.00 0.00 0.00 86 1013.3
20260502113726 4 1 0.0 0.0 0.00 0.00 0.00 87 1013.2
20260502113224 4 317 1.6 1.6 0.00 0.00 0.00 87 1013.3
20260502112722 3 88 0.0 1.6 0.00 0.00 0.00 87 1013.3
20260502112219 3 67 0.0 1.6 0.00 0.00 0.00 88 1013.3
20260502111716 3 79 0.0 1.6 0.00 0.00 0.00 89 1013.4
20260502111214 3 263 1.6 1.6 0.00 0.00 0.00 89 1013.4
20260502110711 3 68 1.6 3.2 0.00 0.00 0.00 90 1013.1
20260502110209 3 37 0.0 0.0 0.00 0.00 0.00 91 1013.3
20260502105707 3 300 0.0 0.0 0.00 0.00 0.00 91 1013.4
20260502105203 3 330 0.0 0.0 0.00 0.00 0.00 91 1013.4
20260502104700 3 298 0.0 0.0 0.00 0.00 0.00 90 1013.4
20260502104158 2 72 0.0 0.0 0.00 0.00 0.00 91 1013.2
20260502103655 2 292 0.0 0.0 0.00 0.00 0.00 90 1013.3
20260502103153 2 276 0.0 0.0 0.00 0.00 0.00 90 1013.3
20260502102649 2 305 0.0 0.0 0.00 0.00 0.00 90 1013.3
20260502102146 2 305 0.0 0.0 0.00 0.00 0.00 90 1013.5
20260502101644 2 285 0.0 0.0 0.00 0.00 0.00 90 1013.4
20260502101142 2 317 0.0 0.0 0.00 0.00 0.00 90 1013.5
20260502100641 2 317 0.0 0.0 0.00 0.00 0.00 90 1013.2
20260502100138 2 316 0.0 0.0 0.00 0.00 0.00 90 1013.4
20260502091112 3 303 1.6 1.6 0.00 0.00 0.00 87 1013.2
20260502090609 3 302 0.0 1.6 0.00 0.00 0.00 86 1013.0
20260502090107 3 292 1.6 1.6 0.00 0.00 0.00 87 1013.0
20260502071504 6 310 3.2 4.8 0.00 0.00 0.00 77 1012.6
20260502071002 6 330 3.2 3.2 0.00 0.00 0.00 79 1012.8
20260502070500 6 302 1.6 1.6 0.00 0.00 0.00 80 1012.7
20260502065958 6 54 0.0 0.0 0.00 0.00 0.00 79 1012.6
20260502065456 6 54 1.6 3.2 0.00 0.00 0.00 78 1012.7
20260502064954 6 310 1.6 3.2 0.00 0.00 0.00 75 1012.7
20260502064451 7 300 0.0 1.6 0.00 0.00 0.00 74 1012.7
20260502063948 7 284 0.0 3.2 0.00 0.00 0.00 72 1012.6
20260502063446 7 318 3.2 4.8 0.00 0.00 0.00 71 1012.6
20260502062944 7 310 0.0 3.2 0.00 0.00 0.00 71 1012.3
20260502062441 7 331 1.6 4.8 0.00 0.00 0.00 70 1012.5
20260502061939 7 309 1.6 6.4 0.00 0.00 0.00 69 1012.5
20260502061437 7 234 1.6 3.2 0.00 0.00 0.00 70 1012.3
20260502060932 7 310 4.8 6.4 0.00 0.00 0.00 69 1012.5
20260502060428 7 308 3.2 4.8 0.00 0.00 0.00 68 1012.6
20260502055925 8 312 1.6 4.8 0.00 0.00 0.00 68 1012.6
20260502055423 8 7 1.6 12.9 0.00 0.00 0.00 67 1012.7
20260502054923 8 306 0.0 4.8 0.00 0.00 0.00 68 1012.6
20260502054420 8 121 1.6 6.4 0.00 0.00 0.00 68 1012.6
20260502053917 8 248 6.4 12.9 0.00 0.00 0.00 68 1012.5
20260502053414 8 343 3.2 6.4 0.00 0.00 0.00 69 1012.4
20260502052912 8 97 1.6 3.2 0.00 0.00 0.00 68 1012.6
20260502052410 8 324 6.4 6.4 0.00 0.00 0.00 67 1012.7
20260502051907 8 299 4.8 9.7 0.00 0.00 0.00 67 1012.7
20260502051406 9 321 3.2 3.2 0.00 0.00 0.00 67 1012.5
20260502050902 9 335 3.2 6.4 0.00 0.00 0.00 68 1012.8
20260502050359 9 311 4.8 9.7 0.00 0.00 0.00 71 1012.6
20260502045856 9 304 1.6 1.6 0.00 0.00 0.00 70 1012.3
20260502045352 9 320 1.6 1.6 0.00 0.00 0.00 69 1012.5
20260502044849 9 64 0.0 1.6 0.00 0.00 0.00 70 1012.0
20260502044345 9 312 0.0 3.2 0.00 0.00 0.00 69 1012.1
20260502043843 9 308 3.2 6.4 0.00 0.00 0.00 70 1012.3
20260502043340 9 87 1.6 1.6 0.00 0.00 0.00 70 1012.1
20260502042840 9 80 1.6 3.2 0.00 0.00 0.00 69 1011.9
20260502042337 10 68 3.2 9.7 0.00 0.00 0.00 68 1012.3
20260502041835 10 75 4.8 6.4 0.00 0.00 0.00 70 1012.3
20260502041332 10 120 1.6 6.4 0.00 0.00 0.00 70 1012.2
20260502040829 10 73 1.6 9.7 0.00 0.00 0.00 70 1012.1
20260502040326 10 67 3.2 3.2 0.00 0.00 0.00 71 1011.9
20260502035822 10 107 4.8 12.9 0.00 0.00 0.00 69 1012.0
20260502035319 10 92 3.2 4.8 0.00 0.00 0.00 71 1011.7
20260502034816 11 333 4.8 9.7 0.00 0.00 0.00 69 1011.9
20260502034314 11 316 3.2 6.4 0.00 0.00 0.00 69 1011.7
20260502033812 11 313 1.6 6.4 0.00 0.00 0.00 68 1011.5
20260502033309 11 312 8.0 11.3 0.00 0.00 0.00 68 1011.9